STARLINK-32113, 60282

Orbit data source: Space-Track

STARLINK-32113, 60282 is a payload satellite owned by SpaceX/Seattle (US) in LEO that was launched on Sun, 28 Jul 2024 UTC via an FALCON 9 launch vehicle from the Air Force Eastern Test Range (AFETR). Payload-class satellites include a variety of spacecraft equipped with specific instruments for various scientific and technological missions. These include communications satellites like Starlink; space stations such as the ISS; scientific satellites like the Hubble; Earth observation satellites from companies like Planet Labs, Umbra, and HawkEye 360; GPS; miniature CubeSats for education and research; and military/defense satellites.

Loading next visibility...
Identifier
60282, 2024-132E
Orbit
LEO
Last TLE update
1 day ago
Origin
Manufacturer
SpaceX/Seattle
Mission
Operational spacecraft
Bus & Motor
STARLINK V2M, Unknown motor
Mass
730 kg wet, ~700 kg dry
Launch date (UTC)
2024-07-28 (11 months ago)
Launch vehicle
FALCON 9
Launch site
Air Force Eastern Test Range (AFETR)
Object type
Payload
Rocket body
Debris
Shape & HBR
Unknown
Radar Cross Section
Large (>1 m²)

Expand to show TLE details & history

TLE from 1 day ago
0 STARLINK-32113
1 60282U 24132E   25182.17243452  .00000744  00000-0  37249-4 0  9990
2 60282  53.1594 140.5868 0001247  85.7009 274.4134 15.30197380 53057
Epoch: 2025-07-01T04:08Z
TLE epoch observation values (Epoch: 2025-07-01T04:08:18.342Z)
Latitude
-0.00004°
Longitude
159.03864°
Altitude
476.057 km
Speed
7.629 km/s
True Right ascension
09h 22m 20s
True Declination
0° 00' 00"
Sunlit
Object was in daylight at epoch
Visualization orbit readout
Latitude
-3.07101°
Longitude
-23.37728°
Altitude
476.639 km
Speed
7.628 km/s
Apparent Right ascension
23h 52m 42s
Apparent Declination
-30° 57' 23"
Sunlit
Object is in full shadow
Visualization observer readout
Local Sidereal Time
16:08:28
Azimuth
101.217° ESE
Elevation
-38.245°
Doppler factor
1
Orbital elements
Apogee altitude
476.334 km
Perigee altitude
474.625 km
Semi-major axis
6,853.616 km
Eccentricity
0.00012
Inclination
53.1594°
RAAN
140.5868°
Arg. of periapsis
85.7009°
True anomaly
Unknown
Mean anomaly
274.4134°
Eccentric anomaly
Unknown
Mean motion
3.82528 °/min
Orbital period
94.11 mins
BSTAR
0.000037249
Loading maneuver chart data...
Loading SW <> Apogee altitude chart data...
Loading historical data...
Loading historical data...
Loading historical data...
Loading historical data...
Loading historical data...
Loading historical data...
Loading historical data...

STARLINK-32113 Visibility forecast

Observer location: undefined°, undefined°

Span
Click to sort rows by Start time (UTC) header in descending order
Start Az.
Max El. time (UTC)
Max El. Az.
Max El.
End time (UTC)
End Az.
5 mins2025-07-02 05:41:03.679Z333.32° NNW2025-07-02 05:44:03.679Z41.867° NE25.081°2025-07-02 05:46:03.679Z83.196° E
4 mins2025-07-02 07:20:03.679Z277.309° WNW2025-07-02 07:22:03.679Z208.055° SW31.053°2025-07-02 07:24:03.679Z164.374° S
4 mins2025-07-02 22:38:03.679Z163.58° S2025-07-02 22:39:03.679Z141.211° SSE21.186°2025-07-02 22:42:03.679Z79.823° E
5 mins2025-07-03 00:15:03.679Z264.337° W2025-07-03 00:17:03.679Z318.531° NNW33.274°2025-07-03 00:20:03.679Z34.406° NE
|